sat.trackr.live / text

‹ back to catalog

2024-094C

NORAD 59807 · 2024-094C

PAYLOAD ACTIVE UNKNOWN

§ Identity

Operator
Country
PRC
Launch date
2024-05-20
Launch site
TAISC
Launch vehicle
Mass (kg)
RCS (m²)

External: N2YO · Heavens-Above · Gunter

§ Orbital elements

Epoch: 2026-09-22T23:43:51.487104Z

Period
94.93 min
Inclination
97.3839°
Eccentricity
0.0001650
Mean motion
15.16972445 rev/d
Perigee alt
513.9 km
Apogee alt
516.1 km
Semi-major
6,893.1 km
B*
2.0195e-4
RAAN
334.6900°
Arg perigee
51.6156°
Mean anomaly
308.5226°
Rev number
12,998

§ Raw data

2024-094C1 59807U 24094C   26265.98879036  .00003922  00000+0  20195-3 0  99942 59807  97.3839 334.6900 0001650  51.6156 308.5226 15.16972445129980

JSON: /api/v1/satellites/59807 · /tle

For live sub-satellite position, see the globe view (requires WebGL).

§ Visibility from observer

Set your observer location to see the next 7 days of passes ≥ 10°. The values pass through the URL so the page stays shareable.

No JS? Fill the form by hand. The geolocation button needs JavaScript.